Location: Chequamegon National Forest
(46.1070°N, 90.8420°W)
Time: 06:06:23
(UTC-05:00)

ISS - All Passes

Search period start: 25 May 2018 00:00
Search period end: 04 June 2018 00:00
Orbit: 402 x 407 km, 51.6° (Epoch: 25 May)

Date Brightness Start Highest point End Pass type
(mag) Time Alt. Az. Time Alt. Az. Time Alt. Az.
25 May - 01:15:51 10° WNW 01:19:02 48° NNE 01:22:12 10° E visible
25 May - 02:52:27 10° WNW 02:55:28 34° SW 02:58:27 10° SSE visible
25 May - 19:34:29 10° S 19:36:46 18° SE 19:39:04 10° E daylight
25 May - 21:09:39 10° WSW 21:12:55 79° NNW 21:16:11 10° ENE visible
25 May - 22:46:44 10° WNW 22:49:43 31° N 22:52:41 10° ENE visible
26 May - 00:23:39 10° WNW 00:26:44 37° NNE 00:29:48 10° E visible
26 May - 02:00:07 10° WNW 02:03:21 60° SSW 02:06:34 10° SE visible
26 May - 18:44:41 10° SE 18:44:48 10° SE 18:44:56 10° SE daylight
26 May - 20:17:29 10° SW 20:20:43 64° SSE 20:23:58 10° ENE daylight
26 May - 21:54:18 10° W 21:57:21 36° NNW 22:00:26 10° ENE visible
26 May - 23:31:24 10° WNW 23:34:22 31° N 23:37:20 10° ENE visible
27 May - 01:07:53 10° WNW 01:11:10 83° NNE 01:14:25 10° ESE visible
27 May - 02:45:06 10° W 02:47:16 17° SW 02:49:26 10° S night (unlit)
27 May - 19:25:32 10° SSW 19:28:34 36° SE 19:31:38 10° ENE daylight
27 May - 21:01:51 10° W 21:05:01 46° NNW 21:08:12 10° ENE daylight
27 May - 22:39:03 10° WNW 22:41:59 29° N 22:44:54 10° ENE visible
28 May - 00:15:40 10° WNW 00:18:54 54° NNE 00:22:06 10° E visible
28 May - 01:52:22 10° W 01:55:14 28° SW 01:58:05 10° SSE visible
28 May - 18:33:55 10° S 18:36:29 21° SE 18:39:04 10° E daylight
28 May - 20:09:27 10° WSW 20:12:43 67° NNW 20:15:59 10° ENE daylight
28 May - 21:46:37 10° WNW 21:49:34 30° N 21:52:31 10° ENE visible
28 May - 23:23:26 10° WNW 23:26:34 40° NNE 23:29:41 10° E visible
29 May - 00:59:56 10° WNW 01:03:07 49° SW 01:06:17 10° SE visible
29 May - 17:43:00 10° SSE 17:44:28 12° SE 17:45:56 10° ESE daylight
29 May - 19:17:12 10° SW 19:20:28 77° SSE 19:23:44 10° ENE daylight
29 May - 20:54:08 10° WNW 20:57:10 34° N 21:00:12 10° ENE daylight
29 May - 22:31:09 10° WNW 22:34:11 33° N 22:37:11 10° ENE visible
30 May - 00:07:38 10° WNW 00:10:55 84° SSW 00:14:10 10° ESE visible
30 May - 01:45:12 10° WSW 01:46:56 14° SW 01:48:40 10° SSW visible
30 May - 18:25:07 10° SW 18:28:15 44° SE 18:31:25 10° ENE daylight
30 May - 20:01:38 10° W 20:04:46 42° NNW 20:07:55 10° ENE daylight
30 May - 21:38:48 10° WNW 21:41:45 30° N 21:44:42 10° ENE visible
30 May - 23:15:22 10° WNW 23:18:38 63° NNE 23:21:52 10° ESE visible
31 May - 00:52:12 10° W 00:54:53 23° SW 00:57:33 10° SSE visible
31 May - 17:33:19 10° SSW 17:36:07 26° SE 17:38:55 10° E daylight
31 May - 19:09:10 10° WSW 19:12:25 58° NNW 19:15:40 10° ENE daylight
31 May - 20:46:22 10° WNW 20:49:18 29° N 20:52:15 10° ENE daylight
31 May - 22:23:06 10° WNW 22:26:17 44° NNE 22:29:25 10° E visible
31 May - 23:59:39 10° WNW 00:02:45 40° SW 00:05:50 10° SE visible
01 Jun - 16:42:01 10° S 16:44:02 15° SE 16:46:01 10° E daylight
01 Jun - 18:16:49 10° WSW 18:20:06 89° N 18:23:24 10° ENE daylight
01 Jun - 19:53:51 10° WNW 19:56:51 32° N 19:59:51 10° ENE daylight
01 Jun - 21:30:48 10° WNW 21:33:52 35° NNE 21:36:54 10° E visible
01 Jun - 23:07:16 10° WNW 23:10:32 70° SSW 23:13:46 10° SE visible
02 Jun - 00:45:27 10° WSW 00:46:29 11° SW 00:47:30 10° SSW visible
02 Jun - 17:24:38 10° SW 17:27:50 54° SSE 17:31:03 10° ENE daylight
02 Jun - 19:01:19 10° W 19:04:25 38° NNW 19:07:31 10° ENE daylight
02 Jun - 20:38:27 10° WNW 20:41:25 30° N 20:44:22 10° ENE daylight
02 Jun - 22:14:58 10° WNW 22:18:14 73° NNE 22:21:30 10° ESE visible
02 Jun - 23:51:58 10° W 23:54:25 19° SW 23:56:51 10° S visible
03 Jun - 16:32:40 10° SSW 16:35:37 31° SE 16:38:35 10° ENE daylight
03 Jun - 18:08:47 10° W 18:12:00 51° NNW 18:15:13 10° ENE daylight
03 Jun - 19:45:59 10° WNW 19:48:56 29° N 19:51:52 10° ENE daylight
03 Jun - 21:22:40 10° WNW 21:25:52 49° NNE 21:29:03 10° E visible
03 Jun - 22:59:17 10° WNW 23:02:16 33° SW 23:05:14 10° SSE visible
